User: anonymous   Login
Location: Unspecified
(0.0000°N, 0.0000°E)
Time: 15:33:24
(UTC+00:00)
Language:

SAUDISAT 4 - Orbit

View from above orbital plane
View from above orbital plane
View from above satellite
View from above satellite

Ground track
Ground track

The orbit data is extracted from the following two-line orbital elements,

1 40016U 14033G   18115.73873227  .00000042  00000-0  13669-4 0  9992
2 40016  97.8223 358.5955 0048485   1.3519 358.7812 14.75180863207233
Epoch (UTC): 25 April 2018 17:43:46
Eccentricity: 0.0048485
inclination: 97.8223°
perigee height: 610 km
apogee height: 678 km
right ascension of ascending node: 358.5955°
argument of perigee: 1.3519°
revolutions per day: 14.75180863
mean anomaly at epoch: 358.7812°
orbit number at epoch: 20723

The dashed part of the orbit path shows where the satellite is in the earth's shadow,  

DLR